STARLINK-4689, 53590

Orbit data source: Space-Track

STARLINK-4689, 53590 is a payload satellite owned by SpaceX/Seattle (US) in LEO that was launched on Sun, 28 Aug 2022 UTC via an FALCON 9 launch vehicle from the Air Force Eastern Test Range (AFETR). Payload-class satellites include a variety of spacecraft equipped with specific instruments for various scientific and technological missions. These include communications satellites like Starlink; space stations such as the ISS; scientific satellites like the Hubble; Earth observation satellites from companies like Planet Labs, Umbra, and HawkEye 360; GPS; miniature CubeSats for education and research; and military/defense satellites.

Loading next visibility...
Identifier
53590, 2022-104C
Orbit
LEO
Country
Flag of USUS
Related business
Manufacturer
SpaceX/Seattle
Mission
Operational Commercial Communications
Bus & Motor
STARLINK, Unknown motor
Mass
300 kg wet, ~290 kg dry
Launch date (UTC)
2022-08-28 (3 years ago)
Launch vehicle
FALCON 9
Launch site
Air Force Eastern Test Range (AFETR)
Object type
Payload
Rocket body
Debris
Shape & HBR
Box + 1 Pan, 10.1 m
Radar Cross Section
13.562 m², Large (>1 m²)

Expand to show TLE details & history
Last TLE update: 16 hours ago

TLE from 16 hours ago
0 STARLINK-4689
1 53590U 22104C   25300.82378911  .00000610  00000-0  56390-4 0  9994
2 53590  53.2162 120.7859 0001337  92.6540 267.4605 15.08840984175904
Epoch: 2025-10-27T19:46Z
TLE epoch observation values (Epoch: 2025-10-27T19:46:15.379Z)
Latitude
-0.00002°
Longitude
147.80171°
Altitude
540.679 km
Speed
7.593 km/s
True Right ascension
08h 03m 08s
True Declination
0° 00' 00"
Sunlit
Object was in daylight at epoch
Visualization orbit readout
Latitude
Unknown
Longitude
Unknown
Altitude
Unknown
Speed
Unknown
Apparent Right ascension
Unknown
Apparent Declination
Unknown
Sunlit
N/A
Visualization observer readout
Local Sidereal Time
07:02:33
Azimuth
Unknown
Elevation
Unknown
Doppler factor
Unknown
Orbital elements
Apogee altitude
540.91 km
Perigee altitude
539.061 km
Semi-major axis
6,918.123 km
Eccentricity
0.00013
Inclination
53.2162°
RAAN
120.7859°
Arg. of periapsis
92.654°
True anomaly
267.44519°
Mean anomaly
267.4605°
Eccentric anomaly
267.45285°
Mean motion
3.77191 °/min
Orbital period
95.44 mins
BSTAR
0.00005639
Loading maneuver chart data...
Computing Atmospheric mass density...
Loading historical data...
Loading historical data...
Loading historical data...
Loading historical data...
Loading historical data...
Loading historical data...
Loading historical data...

Documentation

Showing up to 5 results
|